Weather History for Hillsboro, TX

Change the Weather History Date:

Sunday, November 11, 2012

  Actual Average (KACT) Record (KACT)
Temperature  
Mean Temperature 62 °F 59 °F  
Max Temperature 77 °F 70 °F 88 °F (1980)
Min Temperature 44 °F 48 °F 19 °F (1950)
Degree Days  
Heating Degree Days 4 7  
Month to date heating degree days 64  
Since 1 July heating degree days 131  
Cooling Degree Days 0 1  
Month to date cooling degree days 23  
Year to date cooling degree days 2779  
Growing Degree Days 12 (Base 50)    
Moisture  
Dew Point 55 °F    
Average Humidity 70    
Maximum Humidity 78    
Minimum Humidity 54    
Precipitation  
Precipitation 0.01 in 0.10 in 1.40 in (1920)
Month to date precipitation 1.14  
Year to date precipitation 30.26  
Snow  
Snow 0.00 in 0.00 in T in (1907)
Month to date snowfall 0.0  
Since 1 July snowfall 0.0  
Since 1 September snowfall 0.0  
Snow Depth -    
Sea Level Pressure  
Sea Level Pressure 29.96 in    
Wind  
Wind Speed 16 mph (SW)    
Max Wind Speed 23 mph    
Max Gust Speed 33 mph    
Visibility 10 miles    
Events Rain    
T = Trace of Precipitation, MM = Missing Value Source: NWS Daily Summary

Daily Weather History Graph

Daily Weather History Graph

Search for Another Location

Airport:

Trip Planner

Search our weather history database for the weather conditions in past years. The results will help you decide how hot, cold, wet, or windy it might be!

Date:

Astronomy

Nov. 11, 2012 Rise Set
Actual Time 6:54 AM CST 5:30 PM CST
Civil Twilight 6:28 AM CST 5:56 PM CST
Nautical Twilight 5:59 AM CST 6:25 PM CST
Astronomical Twilight 5:30 AM CST 6:54 PM CST
Moon 4:16 AM CST (11/11) 3:49 PM CST (11/11)
Length of Visible Light 11h 27m
Length of Day
10h 36m
Waning Crescent, 7% of the Moon is Illuminated
Nov 11
Waning Crescent
Nov 13
New
Nov 20
First Quarter
Nov 28
Full
Dec 6
Last Quarter

Hourly Weather History & Observations

Time (CST) Temp. Windchill Dew Point Humidity Pressure Visibility Wind Dir Wind Speed Gust Speed Precip Events Conditions
12:15 AM 69.8 °F - 60.8 °F 73% 29.87 in 10.0 mi SSE 16.1 mph 26.5 mph N/A   Scattered Clouds
12:35 AM 69.8 °F - 60.8 °F 73% 29.86 in 10.0 mi SSE 18.4 mph 25.3 mph N/A   Scattered Clouds
12:55 AM 69.8 °F - 62.6 °F 78% 29.85 in 10.0 mi SSE 15.0 mph 24.2 mph N/A   Scattered Clouds
1:15 AM 69.8 °F - 62.6 °F 78% 29.85 in 10.0 mi South 17.3 mph 26.5 mph N/A   Mostly Cloudy
1:35 AM 69.8 °F - 62.6 °F 78% 29.84 in 10.0 mi SSE 21.9 mph 31.1 mph N/A   Mostly Cloudy
1:55 AM 69.8 °F - 62.6 °F 78% 29.84 in 10.0 mi South 21.9 mph 26.5 mph N/A   Scattered Clouds
2:15 AM 69.8 °F - 62.6 °F 78% 29.83 in 10.0 mi SSE 19.6 mph 26.5 mph N/A   Scattered Clouds
2:35 AM 69.8 °F - 62.6 °F 78% 29.82 in 10.0 mi SSE 20.7 mph 24.2 mph N/A   Scattered Clouds
2:55 AM 69.8 °F - 62.6 °F 78% 29.82 in 10.0 mi South 20.7 mph 28.8 mph N/A   Scattered Clouds
3:15 AM 69.8 °F - 62.6 °F 78% 29.81 in 10.0 mi SSE 23.0 mph 33.4 mph N/A   Clear
3:35 AM 69.8 °F - 62.6 °F 78% 29.80 in 10.0 mi SSE 17.3 mph 28.8 mph N/A   Clear
3:55 AM 69.8 °F - 62.6 °F 78% 29.81 in 10.0 mi SSE 20.7 mph 24.2 mph N/A   Scattered Clouds
4:15 AM 69.8 °F - 62.6 °F 78% 29.81 in 10.0 mi SSE 20.7 mph 24.2 mph N/A   Scattered Clouds
4:35 AM 69.8 °F - 62.6 °F 78% 29.82 in 10.0 mi SSE 20.7 mph 27.6 mph N/A   Mostly Cloudy
4:55 AM 69.8 °F - 62.6 °F 78% 29.82 in 10.0 mi SSE 16.1 mph 25.3 mph N/A   Overcast
5:35 AM 69.8 °F - 62.6 °F 78% 29.83 in 10.0 mi South 18.4 mph 26.5 mph N/A   Mostly Cloudy
5:55 AM 69.8 °F - 62.6 °F 78% 29.84 in 10.0 mi South 19.6 mph 26.5 mph N/A   Mostly Cloudy
6:15 AM 69.8 °F - 62.6 °F 78% 29.85 in 10.0 mi South 18.4 mph - N/A   Mostly Cloudy
6:35 AM 69.8 °F - 62.6 °F 78% 29.85 in 10.0 mi South 18.4 mph 24.2 mph N/A   Mostly Cloudy
6:55 AM 69.8 °F - 62.6 °F 78% 29.87 in 10.0 mi South 15.0 mph 19.6 mph N/A   Mostly Cloudy
7:15 AM 69.8 °F - 62.6 °F 78% 29.86 in 10.0 mi SSE 15.0 mph 19.6 mph N/A   Mostly Cloudy
7:35 AM 71.6 °F - 62.6 °F 73% 29.87 in 10.0 mi South 17.3 mph 20.7 mph N/A   Mostly Cloudy
8:15 AM 71.6 °F - 62.6 °F 73% 29.89 in 10.0 mi South 16.1 mph 24.2 mph N/A   Scattered Clouds
8:35 AM 71.6 °F - 62.6 °F 73% 29.90 in 10.0 mi South 21.9 mph 26.5 mph N/A   Scattered Clouds
8:55 AM 73.4 °F - 62.6 °F 69% 29.91 in 10.0 mi South 17.3 mph 24.2 mph N/A   Scattered Clouds
9:15 AM 73.4 °F - 62.6 °F 69% 29.93 in 10.0 mi SSW 21.9 mph - N/A   Scattered Clouds
9:35 AM 73.4 °F - 62.6 °F 69% 29.93 in 10.0 mi SSW 17.3 mph 23.0 mph N/A   Scattered Clouds
9:55 AM 73.4 °F - 62.6 °F 69% 29.93 in 10.0 mi South 17.3 mph - N/A   Scattered Clouds
10:15 AM 77.0 °F - 62.6 °F 61% 29.93 in 10.0 mi SSW 16.1 mph - N/A   Scattered Clouds
10:35 AM 75.2 °F - 60.8 °F 61% 29.93 in 10.0 mi SSW 18.4 mph 23.0 mph N/A   Scattered Clouds
10:55 AM 77.0 °F - 60.8 °F 57% 29.92 in 10.0 mi SSW 18.4 mph 29.9 mph N/A   Scattered Clouds
11:15 AM 77.0 °F - 59.0 °F 54% 29.91 in 10.0 mi South 23.0 mph 32.2 mph N/A   Mostly Cloudy
11:35 AM 77.0 °F - 59.0 °F 54% 29.90 in 10.0 mi South 20.7 mph 29.9 mph N/A   Mostly Cloudy
11:55 AM 77.0 °F - 59.0 °F 54% 29.90 in 10.0 mi South 17.3 mph 27.6 mph N/A   Scattered Clouds
12:15 PM 77.0 °F - 59.0 °F 54% 29.90 in 10.0 mi SSW 21.9 mph 27.6 mph N/A   Clear
12:35 PM 68.0 °F - 53.6 °F 60% 29.92 in 10.0 mi WNW 17.3 mph - N/A Rain Light Rain
12:55 PM 60.8 °F - 53.6 °F 77% 29.93 in 7.0 mi NW 17.3 mph 25.3 mph 0.01 in Rain Light Rain
1:15 PM 59.0 °F - 51.8 °F 77% 29.93 in 10.0 mi NW 19.6 mph 25.3 mph N/A   Overcast
1:35 PM 59.0 °F - 51.8 °F 77% 29.93 in 10.0 mi NW 12.7 mph - N/A Rain Light Rain
2:15 PM 60.8 °F - 51.8 °F 72% 29.93 in 10.0 mi NNW 13.8 mph - N/A   Overcast
2:35 PM 62.6 °F - 51.8 °F 68% 29.94 in 10.0 mi NNW 6.9 mph - N/A   Mostly Cloudy
2:55 PM 64.4 °F - 50.0 °F 59% 29.94 in 10.0 mi NNW 11.5 mph 16.1 mph N/A   Mostly Cloudy
3:15 PM 64.4 °F - 48.2 °F 56% 29.95 in 10.0 mi NNW 11.5 mph - N/A   Mostly Cloudy
3:35 PM 64.4 °F - 50.0 °F 59% 29.96 in 10.0 mi NW 8.1 mph - N/A   Overcast
3:55 PM 64.4 °F - 50.0 °F 59% 29.97 in 10.0 mi NNW 8.1 mph - N/A   Mostly Cloudy
4:15 PM 64.4 °F - 50.0 °F 59% 29.98 in 10.0 mi NNW 6.9 mph - N/A   Mostly Cloudy
4:35 PM 64.4 °F - 50.0 °F 59% 29.98 in 10.0 mi North 5.8 mph - N/A   Overcast
4:55 PM 62.6 °F - 50.0 °F 63% 29.99 in 10.0 mi North 4.6 mph - N/A   Overcast
5:15 PM 62.6 °F - 50.0 °F 63% 29.99 in 10.0 mi NNW 3.5 mph - N/A   Scattered Clouds
5:35 PM 60.8 °F - 50.0 °F 68% 30.00 in 10.0 mi NNW 4.6 mph - N/A   Scattered Clouds
5:55 PM 60.8 °F - 51.8 °F 72% 30.01 in 10.0 mi Calm Calm - N/A   Scattered Clouds
6:15 PM 60.8 °F - 50.0 °F 68% 30.03 in 10.0 mi Calm Calm - N/A   Mostly Cloudy
6:35 PM 60.8 °F - 51.8 °F 72% 30.04 in 7.0 mi NNE 3.5 mph - N/A   Scattered Clouds
6:55 PM 60.8 °F - 51.8 °F 72% 30.04 in 10.0 mi NE 5.8 mph - N/A   Mostly Cloudy
7:15 PM 59.0 °F - 50.0 °F 72% 30.08 in 10.0 mi Calm Calm - N/A   Mostly Cloudy
7:35 PM 59.0 °F - 50.0 °F 72% 30.08 in 10.0 mi NNW 4.6 mph - N/A   Scattered Clouds
7:55 PM 59.0 °F - 51.8 °F 77% 30.09 in 10.0 mi Calm Calm - N/A   Mostly Cloudy
8:15 PM 60.8 °F - 50.0 °F 68% 30.10 in 10.0 mi Calm Calm - N/A   Mostly Cloudy
8:35 PM 59.0 °F - 50.0 °F 72% 30.13 in 10.0 mi North 10.4 mph - N/A   Scattered Clouds
8:55 PM 59.0 °F - 51.8 °F 77% 30.15 in 10.0 mi North 8.1 mph - N/A   Mostly Cloudy
9:15 PM 59.0 °F - 50.0 °F 72% 30.17 in 10.0 mi North 21.9 mph 27.6 mph N/A   Mostly Cloudy
9:35 PM 53.6 °F - 44.6 °F 72% 30.18 in 10.0 mi NNW 16.1 mph 26.5 mph N/A   Mostly Cloudy
9:55 PM 53.6 °F - 44.6 °F 72% 30.19 in 10.0 mi North 20.7 mph 25.3 mph N/A   Scattered Clouds
10:15 PM 51.8 °F - 42.8 °F 71% 30.21 in 10.0 mi North 17.3 mph 25.3 mph N/A   Scattered Clouds
10:35 PM 50.0 °F - 41.0 °F 71% 30.23 in 10.0 mi NNW 17.3 mph 23.0 mph N/A   Scattered Clouds
10:55 PM 50.0 °F - 39.2 °F 66% 30.23 in 10.0 mi NNW 12.7 mph 20.7 mph N/A   Scattered Clouds
11:15 PM 48.2 °F - 37.4 °F 66% 30.23 in 10.0 mi NNW 12.7 mph 19.6 mph N/A   Clear
11:35 PM 46.4 °F 40.4 °F 35.6 °F 66% 30.25 in 10.0 mi NNW 13.8 mph - N/A   Clear
11:55 PM 44.6 °F 37.8 °F 35.6 °F 71% 30.26 in 10.0 mi NNW 15.0 mph - N/A   Clear